リニア彗星

214P/LINEAR (2002)

English version
Home page
Updated on February 15, 2009

---------------------------------------------------------------------

・ プロフィール

符号 214P/2002 CW134
発見日 2002年2月7日
発見光度 20.1等
発見者 Lincoln Laboratory Near-Earth Asteroid Research project

・ 軌道要素

Epoch 2002 Feb. 15.0 TT = JDT 2452320.5
T 2002 Feb. 28.94268 TT                                 MPC
q   1.8395125            (2000.0)            P               Q
n   0.14415013     Peri.  190.11037     -0.99837522     -0.02045765
a   3.6024063      Node   348.31635     +0.04906432     -0.78324640
e   0.4893656      Incl.   15.22563     -0.02897614     -0.62137473
P   6.84

・ 星図

・ 光度変化

        m1 = 15.5 + 5 logΔ + 10.0 log r

---------------------------------------------------------------------

軌道要素は Dr. Brian G. Marsden の計算によるもので、 M.P.E.C. 2009-C04 に掲載されたものです。
星図は StellaNavigator Ver.2.0 for Windows (アストロアーツ 編著 / アスキー出版局刊) で作成したものです。
光度グラフはComet for Windowsで作成したものです。

---------------------------------------------------------------------

Copyright(C) Seiichi Yoshida (comet@aerith.net). All rights reserved.